Back to catalog

COSMOS 2251 DEB

AliveLEO
NORAD 34115·DEBRIS·🇷🇺 Russia

Launched Jun 16, 1993 from Plesetsk Cosmodrome

Loading…

Next Passes (next 24 hours)

TLE

FreshSource: Space-Track

Epoch: Sep 14, 2026, 10:18 UTC

1 34115U 93036KL  26257.42966160  .00005712  00000-0  69481-3 0  9997
2 34115  74.0050  56.4005 0029207 169.2727 190.9081 14.83391359934950

Track COSMOS 2251 DEB in real time with AllMySat

Download on the App Store